Regional Weather Roundup
Issued by NWS

Home | Current Version | Previous Version | Text Only | Print | Product List | Glossary On
Versions: 1 2 3 4 5 6 7 8 9 10 11 12 13 14 15 16 17 18 19 20 21 22 23 24 25 26 27 28 29 30 31 32 33 34 35 36 37 38 39 40 41 42 43 44 45 46 47 48 49 50
000
ASUS43 KTOP 301459
RWRKS

WEATHER ROUNDUP FOR KANSAS
NATIONAL WEATHER SERVICE GOODLAND KS
1000 AM CDT SAT MAY 30 2015

NOTE:  "FAIR" INDICATES FEW OR NO CLOUDS BELOW 12,000 FEET WITH NO
SIGNIFICANT WEATHER AND/OR OBSTRUCTIONS TO VISIBILITY.

KSZ001>006-013>018-027>032-041>047-301600-
NORTHWEST KANSAS

CITY           SKY/WX    TMP DP  RH WIND       PRES   REMARKS
GOODLAND       CLOUDY    49  42  77 N15       30.31F
HAYS           SUNNY     55  39  54 N21       30.26S
HILL CITY      SUNNY     55  41  59 N16G23    30.29S
RUSSELL        MOSUNNY   56  44  64 N17       30.23S
$$

KSZ061>065-074>080-084>089-301600-
SOUTHWEST KANSAS

CITY           SKY/WX    TMP DP  RH WIND       PRES   REMARKS
DODGE CITY     MOSUNNY   56  41  57 N18G29    30.26S
ELKHART          N/A     53  45  74 N7          N/A
GARDEN CITY    MOSUNNY   54  44  69 N17       30.27F
GREAT BEND     SUNNY     55  45  67 N18G24    30.22F
LIBERAL        CLOUDY    54  46  76 N14       30.30S
$$

KSZ066>073-081>083-090>101-301600-
SOUTHEAST KANSAS

CITY           SKY/WX    TMP DP  RH WIND       PRES   REMARKS
CHANUTE        CLOUDY    59  56  89 N12       30.10R
COFFEYVILLE    CLOUDY    62  58  86 N18       30.09R
HUTCHINSON     CLOUDY    57  46  66 N17G23    30.19S
MEDICINE LODGE   N/A     60  49  66 N18G29    30.19S
NEWTON         CLOUDY    54  45  71 N18G24    30.19R
PARSONS        CLOUDY    60  57  89 N13G20    30.11R
WICHITA INTL   CLOUDY    56  49  77 N12       30.17R
WICHITA JABRA  CLOUDY    57  49  74 N18G24    30.16S
WINFIELD       CLOUDY    57  51  80 NW15G24   30.17R
$$

KSZ007>012-019>026-033>040-048>060-102>105-301600-
NORTHEAST KANSAS

CITY           SKY/WX    TMP DP  RH WIND       PRES   REMARKS
CONCORDIA      CLOUDY    53  46  77 N14G24    30.21S
EMPORIA        CLOUDY    55  52  89 NW16      30.13S
LAWRENCE       CLOUDY    55  53  93 N13       30.12S FOG
MANHATTAN      CLOUDY    55  49  80 N7        30.17S
OLATHE IND     CLOUDY    55  53  93 NW17      30.10S FOG
OLATHE EXE     CLOUDY    57  54  89 N10G20    30.08S
SALINA         CLOUDY    55  46  71 N18       30.20S
TOPEKA BILLARD CLOUDY    56  52  86 NW12G20   30.14R
TOPEKA FORBES  CLOUDY    56  52  86 N10       30.12S
$$



USA.gov is the U.S. government's official web portal to all federal, state and local government web resources and services.